User: anonymous   Login
Location: Pacheco
(37.9835°N, 122.0752°W)
Time: 16:40:56
(UTC+00:00)
Language:

YAOGAN 6 - Orbit

View from above orbital plane
View from above orbital plane
View from above satellite
View from above satellite

Ground track
Ground track

The orbit data is extracted from the following two-line orbital elements,

1 34839U 09021A   24169.88683408  .00017761  00000-0  33678-3 0  9998
2 34839  97.1698 137.3747 0017946 167.9942 192.1740 15.48203392843541
Epoch (UTC): 17 June 2024 21:17:02
Eccentricity: 0.0017946
inclination: 97.1698°
perigee height: 410 km
apogee height: 434 km
right ascension of ascending node: 137.3747°
argument of perigee: 167.9942°
revolutions per day: 15.48203392
mean anomaly at epoch: 192.1740°
orbit number at epoch: 84354

The dashed part of the orbit path shows where the satellite is in the earth's shadow,  

DLR